Back to catalog

FENGYUN 1C DEB *

AliveSSO
NORAD 48518·DEBRIS·🇨🇳 China

Launched May 10, 1999 from Taiyuan Satellite Launch Center

Loading…

Next Passes (next 24 hours)

TLE

AgingSource: Space-Track

Epoch: Sep 8, 2026, 09:28 UTC

1 48518U 99025FCG 26251.39450636  .00002678  00000-0  13900-2 0  9991
2 48518  99.2628 225.8566 0130929  66.0363 295.4454 14.11323338639714

Track FENGYUN 1C DEB * in real time with AllMySat

Download on the App Store